Wind_Speed
89 80 80 76 75 86 83 75 71 68 69 67 67 66 66 67 68 71 73 70 65 63 67 70 69 65 63 66 64 63 66 67 65 69 71 75 71 68 76 77 80 72 73 70 73 76 80
82 81 78 76 78 81 79 74 73 68 69 69 68 66 66 68 69 69 67 70 72 68 70 69 70 70 69 68 66 65 65 67 64 68 72 73 78 75 78 80 81 77 76 79 77 83 87
82 77 76 76 75 81 73 73 76 73 73 70 68 69 68 70 71 67 64 63 64 65 64 70 69 73 71 73 67 66 65 67 74 74 72 75 81 81 79 78 77 77 77 77 83 89 85
86 83 79 80 80 77 77 73 74 73 75 75 73 72 69 70 70 67 67 59 63 65 66 70 73 75 76 74 69 68 70 73 75 68 79 81 80 78 79 75 75 80 84 86 84 86 81
91 89 86 83 86 81 81 78 79 75 77 75 72 70 67 70 72 70 66 64 67 71 68 73 75 79 77 74 75 74 77 78 71 76 72 79 83 83 83 82 84 91 92 87 71 86 88
94 94 93 89 87 87 90 86 84 81 80 81 79 76 72 71 73 73 69 73 70 73 78 77 74 79 80 82 81 79 79 78 75 77 79 80 81 82 84 91 89 90 88 85 81 83 97
104 99 100 97 93 94 92 93 91 86 83 83 82 82 80 82 78 77 77 77 77 79 83 84 85 84 86 87 87 82 81 77 83 88 85 88 83 80 86 89 93 93 95 88 89 92 102
112 112 110 108 105 99 97 95 97 93 91 87 87 86 88 92 88 86 83 85 83 83 86 90 88 90 92 91 85 83 81 89 96 85 86 88 77 85 89 91 98 104 100 99 97 92 98
123 121 118 116 109 107 102 102 104 100 96 96 94 91 91 94 97 92 91 90 88 93 92 97 95 96 94 89 86 86 93 94 99 98 88 86 81 87 96 102 99 97 106 100 97 92 94
128 129 127 122 119 114 111 112 109 110 107 108 102 97 98 96 97 101 99 96 99 97 97 101 99 93 98 94 95 100 103 102 99 99 96 92 96 102 100 98 104 108 105 100 97 93 88
137 131 134 129 125 122 121 118 117 119 118 116 112 111 108 105 102 102 102 101 102 104 104 104 101 103 106 105 102 104 105 106 107 94 101 90 97 96 100 101 104 101 96 92 92 83 75
137 137 139 133 129 127 127 126 127 125 126 123 118 116 112 111 109 107 106 108 106 108 110 103 100 106 107 110 104 105 108 111 109 99 109 108 102 103 103 101 94 91 87 83 74 66 51
122 116 115 116 117 117 117 121 123 121 122 121 118 116 110 106 109 109 110 112 114 104 105 102 104 107 107 111 109 108 110 107 109 114 115 110 105 103 108 94 79 84 75 65 57 54 50
102 99 99 95 98 100 103 105 105 110 108 112 114 112 111 108 107 108 109 106 100 96 103 106 107 108 105 108 106 109 106 107 111 114 109 98 94 99 98 80 67 71 61 55 50 46 38
88 85 83 84 86 90 89 91 94 95 97 100 97 100 102 99 101 98 98 98 94 95 100 103 100 100 102 102 104 102 103 108 105 101 96 90 73 77 68 67 59 60 51 46 40 37 31
67 68 69 68 71 73 74 77 79 79 81 82 83 84 87 88 86 88 86 86 88 91 90 91 92 91 89 92 96 98 95 92 87 86 84 74 63 59 59 56 52 46 39 34 31 28 32
56 57 58 61 63 63 63 63 60 59 62 66 69 70 72 73 73 77 77 76 74 75 73 70 71 76 81 84 87 88 85 82 78 78 72 62 57 54 54 44 40 32 29 27 26 31 33
46 46 47 49 52 53 52 52 49 50 50 56 55 55 56 57 55 56 56 57 60 61 63 67 71 74 76 80 79 77 72 68 68 64 61 56 52 48 43 35 28 23 22 27 32 35 37
44 39 36 39 40 44 46 41 42 43 43 42 43 46 45 47 46 48 51 54 57 60 63 69 72 75 74 73 67 66 63 61 59 55 52 46 42 38 32 26 25 26 32 40 44 44 46
40 36 36 42 41 43 43 42 42 41 40 39 40 39 39 37 43 49 50 53 55 60 64 67 68 70 71 65 57 57 56 54 50 47 43 36 31 27 23 22 23 26 38 43 42 47 51
45 45 44 44 44 44 43 43 40 39 39 40 38 37 41 44 45 46 47 51 54 58 60 64 66 68 61 53 50 48 47 46 43 37 31 26 23 20 19 21 26 33 37 44 44 48 54
46 46 45 46 45 44 43 45 43 43 45 44 43 42 38 40 42 45 49 52 51 53 58 62 64 55 48 45 44 46 44 38 32 28 25 22 19 20 24 29 35 36 40 46 49 55 62
40 40 42 46 45 43 41 44 41 38 42 42 44 43 42 42 45 48 52 48 51 60 62 58 54 48 44 40 40 42 37 28 25 25 22 20 21 25 29 33 37 41 46 55 58 58 63
40 41 42 43 43 44 42 40 37 38 39 39 37 38 41 43 45 45 49 53 62 63 58 55 50 42 36 37 36 34 27 22 22 22 21 19 22 26 32 35 38 43 49 56 60 60 59
37 38 38 42 42 38 40 40 34 39 37 38 39 40 42 45 50 55 62 59 59 55 51 48 45 36 32 30 28 28 23 21 20 20 21 19 23 27 36 39 45 48 52 57 61 63 61
41 40 40 42 38 38 37 37 37 40 41 41 42 43 47 53 55 57 56 51 50 49 46 43 40 35 27 27 23 25 24 18 19 21 23 21 28 28 36 42 46 48 51 53 57 62 63
45 44 44 44 43 43 41 42 44 47 45 45 45 45 45 42 42 43 43 44 43 45 44 38 34 30 22 23 20 23 24 21 21 23 25 25 27 28 27 37 44 44 48 50 53 53 55
50 48 46 46 47 43 41 40 39 37 35 32 34 34 32 34 37 38 40 42 43 39 38 33 28 24 22 20 21 21 27 23 23 26 27 23 25 26 26 26 37 44 48 50 49 49 50
50 53 49 48 42 40 39 35 34 32 30 31 32 32 34 35 38 39 40 38 36 34 31 30 27 21 19 19 18 22 26 22 27 27 29 29 29 29 30 29 31 32 41 48 49 51 52
Wind_Direction
280 279 279 276 268 272 278 276 272 270 273 272 270 268 266 263 264 262 262 267 268 268 274 276 274 282 287 285 286 287 282 281 283 284 283 281 286 286 286 285 291 294 292 293 290 289 290
277 276 276 273 267 272 275 272 271 272 271 269 266 266 266 263 263 262 264 265 268 271 276 276 275 282 284 282 285 282 281 280 284 282 285 283 284 282 289 286 290 291 286 288 287 287 289
278 277 274 272 269 271 271 272 273 270 269 269 266 264 264 264 261 262 266 266 266 270 275 277 276 280 281 281 282 282 282 282 280 277 280 281 279 284 282 289 286 283 285 285 286 287 291
277 277 280 272 270 271 271 271 276 273 272 271 268 266 265 266 265 266 268 268 270 272 273 276 279 281 283 284 284 280 279 285 278 287 278 282 281 283 287 282 282 287 288 285 286 290 288
283 277 281 278 274 274 275 272 274 278 276 272 272 269 268 270 271 270 268 272 274 275 275 275 275 282 284 284 287 283 282 285 289 285 285 282 287 285 286 280 283 287 290 288 283 292 287
278 282 282 281 278 280 277 277 274 275 279 279 278 273 271 269 270 271 270 275 274 277 279 279 279 284 284 283 287 287 284 286 286 286 283 288 287 284 283 281 286 289 288 290 292 292 287
280 280 281 281 279 279 277 276 276 276 275 276 278 279 280 276 275 272 271 273 273 277 282 283 282 283 280 282 284 285 284 286 287 287 281 287 289 285 285 286 290 293 295 291 294 287 284
282 281 281 279 279 278 277 276 276 276 276 274 275 276 276 277 277 277 275 275 272 280 282 282 283 284 283 286 285 283 278 283 290 287 280 286 288 284 287 291 293 294 297 296 287 285 281
280 279 278 278 276 276 274 275 273 274 276 273 275 274 275 277 279 280 281 283 280 282 285 287 287 288 291 287 281 277 281 286 288 291 289 287 285 286 287 291 295 295 293 291 286 284 284
274 275 274 274 273 273 273 273 274 272 274 277 272 271 272 272 275 277 279 280 281 284 285 285 285 282 285 283 278 276 281 286 288 287 286 287 284 288 290 293 291 289 293 289 285 281 282
273 272 272 269 270 269 271 272 273 272 274 273 271 271 273 271 271 272 274 276 280 282 280 284 283 281 281 284 282 281 286 287 289 288 291 290 292 292 295 291 291 293 287 284 281 282 282
270 269 268 268 270 269 270 271 270 269 271 270 269 271 271 269 267 270 271 274 274 277 278 279 279 278 281 283 281 281 284 286 287 285 287 293 293 296 295 294 291 286 283 279 278 279 282
270 267 267 266 266 267 266 265 265 265 266 266 266 267 268 268 266 267 269 272 274 273 276 276 273 272 274 278 281 283 284 285 284 284 287 290 293 297 293 287 288 284 279 278 278 273 263
267 265 267 263 263 262 261 261 262 263 263 262 264 266 264 265 267 267 269 268 268 268 270 272 272 273 272 274 277 279 282 281 283 285 290 293 295 291 288 287 286 280 279 276 268 262 260
266 265 265 260 259 258 259 259 259 258 258 258 259 261 263 263 264 266 266 266 265 265 266 268 272 275 276 275 276 279 281 283 286 289 294 294 291 284 283 283 281 277 275 271 266 256 241
263 260 258 257 255 253 253 253 254 257 256 256 260 260 260 261 262 264 266 266 265 265 268 269 273 274 276 278 280 281 284 289 291 295 293 290 287 284 284 280 278 274 272 260 246 229 217
257 254 252 250 249 249 249 252 252 252 253 254 257 258 258 261 262 262 265 267 267 268 269 272 277 279 280 282 286 290 289 292 294 292 292 289 287 285 281 279 274 268 252 237 212 207 204
251 249 246 245 244 242 240 245 246 248 248 249 254 255 256 258 259 260 260 261 262 263 266 273 276 281 284 286 287 289 294 294 292 289 290 288 287 284 280 274 263 240 215 195 197 197 192
240 236 233 232 227 230 232 231 232 231 231 235 242 249 253 256 252 254 256 259 263 268 272 275 277 282 285 289 292 297 297 292 289 289 286 287 283 278 273 261 238 203 194 189 192 189 184
232 220 218 222 219 223 222 224 220 225 229 233 238 245 248 250 254 259 265 268 270 274 276 279 280 283 290 294 298 296 291 289 290 290 289 284 276 272 263 247 225 200 191 192 197 191 190
224 215 216 217 219 218 219 214 219 222 224 232 238 246 245 248 260 265 270 276 280 280 282 281 283 288 294 299 297 294 293 293 292 287 282 276 268 254 235 224 188 184 190 191 192 193 191
224 223 216 217 214 223 220 223 227 225 229 237 242 248 253 261 265 271 276 281 281 279 283 282 288 294 298 301 302 301 294 291 287 280 273 267 255 237 215 199 184 183 184 192 192 192 193
224 224 221 222 223 227 230 232 237 244 233 240 243 251 256 263 267 271 277 277 281 288 290 291 293 299 302 305 302 293 289 288 281 273 266 251 232 213 209 196 186 184 184 191 194 198 197
222 220 218 217 226 228 231 238 242 241 242 248 253 259 264 268 273 276 279 281 285 287 289 291 297 299 305 302 292 285 283 278 269 264 255 243 225 212 201 196 186 190 189 193 195 201 203
215 220 219 224 225 230 232 238 233 238 245 249 255 255 261 267 268 274 278 280 284 286 291 296 296 302 304 292 287 282 279 264 258 257 247 226 219 210 199 196 195 192 195 196 197 200 203
214 217 224 224 229 229 230 228 231 234 239 251 255 261 264 270 270 273 276 281 283 288 294 296 300 300 296 293 277 271 264 255 249 242 241 215 212 211 202 202 204 202 205 209 206 204 206
211 211 219 225 229 226 231 237 241 246 254 258 260 263 265 266 267 271 275 280 289 293 294 295 294 295 297 284 269 257 255 242 239 239 239 216 214 216 208 207 210 210 210 211 215 214 212
210 215 218 223 229 234 240 242 249 255 260 260 258 258 261 264 268 274 281 287 290 292 292 292 292 296 296 271 261 249 247 238 234 236 236 224 216 219 222 211 212 213 215 215 221 221 220
212 217 224 229 230 235 240 246 253 263 258 255 256 256 260 267 273 279 284 289 289 290 291 295 298 298 287 265 250 239 238 227 232 233 234 227 220 214 216 219 213 211 217 224 224 225 226
Height
10687 10686 10687 10689 10687 10684 10681 10679 10680 10677 10677 10676 10677 10676 10675 10674 10675 10676 10676 10676 10676 10676 10677 10678 10677 10675 10674 10670 10670 10664 10663 10662 10661 10657 10655 10653 10649 10651 10650 10645 10640 10643 10637 10638 10637 10633 10629
10668 10667 10666 10667 10667 10666 10664 10662 10662 10662 10660 10659 10660 10661 10660 10660 10661 10661 10660 10660 10661 10662 10663 10663 10660 10659 10657 10652 10655 10649 10646 10644 10643 10639 10638 10638 10633 10634 10634 10629 10625 10623 10623 10623 10620 10614 10612
10650 10649 10648 10648 10647 10649 10646 10644 10644 10643 10642 10641 10644 10644 10643 10644 10646 10646 10646 10645 10645 10645 10646 10645 10643 10642 10640 10634 10637 10631 10629 10627 10627 10627 10623 10621 10617 10616 10616 10611 10606 10601 10605 10605 10605 10594 10593
10627 10629 10628 10629 10628 10627 10627 10626 10623 10624 10624 10623 10624 10626 10626 10626 10627 10629 10629 10629 10630 10628 10629 10628 10628 10626 10619 10619 10620 10614 10611 10607 10608 10610 10608 10601 10599 10598 10597 10593 10585 10581 10581 10583 10587 10572 10565
10602 10606 10606 10608 10608 10607 10606 10605 10605 10604 10603 10604 10604 10606 10608 10610 10611 10611 10612 10613 10614 10612 10610 10610 10611 10607 10599 10600 10596 10597 10593 10589 10592 10587 10588 10581 10579 10579 10574 10566 10568 10561 10558 10552 10571 10548 10538
10577 10583 10584 10585 10586 10586 10585 10583 10584 10583 10583 10581 10583 10585 10589 10591 10593 10594 10595 10594 10595 10594 10591 10591 10593 10588 10584 10580 10575 10573 10571 10573 10573 10572 10570 10566 10563 10559 10548 10541 10552 10539 10530 10531 10533 10547 10507
10549 10556 10559 10560 10562 10565 10564 10563 10561 10563 10563 10564 10563 10563 10566 10566 10572 10575 10576 10575 10575 10576 10572 10570 10573 10569 10562 10560 10558 10550 10550 10555 10550 10553 10550 10546 10546 10539 10526 10519 10519 10514 10506 10504 10515 10504 10475
10522 10527 10533 10535 10538 10541 10542 10540 10539 10540 10542 10543 10546 10547 10546 10544 10549 10552 10553 10554 10555 10554 10552 10548 10548 10549 10540 10538 10538 10529 10532 10533 10530 10530 10528 10527 10527 10514 10509 10503 10494 10485 10479 10481 10469 10476 10455
10495 10498 10504 10507 10512 10515 10518 10518 10514 10518 10520 10523 10524 10528 10527 10527 10524 10528 10528 10529 10531 10533 10533 10521 10523 10522 10517 10513 10516 10513 10512 10510 10506 10504 10501 10507 10507 10493 10486 10485 10467 10458 10453 10446 10441 10448 10437
10469 10470 10473 10479 10483 10490 10491 10489 10493 10491 10497 10498 10501 10504 10505 10511 10513 10508 10509 10512 10508 10511 10510 10504 10503 10501 10499 10494 10494 10487 10490 10490 10488 10483 10480 10487 10479 10472 10465 10463 10445 10430 10432 10416 10414 10414 10414
10433 10437 10441 10445 10453 10457 10463 10469 10466 10465 10469 10473 10475 10479 10482 10486 10490 10492 10492 10491 10490 10490 10485 10489 10487 10481 10475 10471 10468 10466 10463 10463 10464 10460 10452 10469 10452 10443 10441 10437 10420 10411 10406 10399 10388 10393 10391
10393 10400 10405 10409 10417 10425 10434 10442 10439 10439 10439 10444 10449 10452 10457 10461 10465 10469 10470 10468 10470 10467 10466 10474 10473 10458 10449 10450 10449 10449 10445 10440 10440 10439 10426 10436 10427 10417 10409 10404 10401 10389 10379 10374 10375 10375 10384
10353 10359 10365 10374 10385 10393 10401 10403 10405 10411 10413 10418 10420 10425 10430 10433 10438 10443 10445 10445 10445 10449 10446 10451 10448 10441 10434 10433 10430 10427 10424 10419 10412 10413 10409 10404 10408 10397 10370 10368 10379 10357 10356 10360 10362 10359 10356
10319 10325 10334 10343 10351 10358 10362 10365 10374 10380 10387 10390 10392 10395 10401 10409 10412 10416 10419 10419 10422 10429 10424 10420 10418 10416 10417 10416 10413 10410 10403 10399 10387 10383 10386 10386 10391 10369 10347 10345 10353 10336 10340 10341 10340 10341 10348
10289 10298 10304 10310 10318 10325 10334 10341 10344 10351 10358 10363 10368 10373 10376 10383 10385 10390 10392 10395 10400 10401 10398 10397 10397 10396 10391 10390 10390 10387 10380 10374 10366 10362 10359 10353 10357 10336 10332 10325 10326 10320 10324 10325 10326 10332 10337
10264 10272 10279 10287 10293 10300 10308 10313 10321 10329 10336 10341 10346 10355 10358 10359 10364 10367 10370 10373 10376 10375 10376 10377 10376 10375 10372 10367 10365 10360 10358 10349 10343 10338 10332 10328 10323 10317 10313 10309 10307 10306 10310 10312 10315 10322 10325
10244 10251 10258 10266 10273 10282 10288 10297 10304 10311 10317 10321 10327 10335 10339 10342 10346 10349 10352 10352 10356 10358 10358 10358 10357 10355 10351 10348 10344 10339 10335 10333 10321 10314 10306 10304 10301 10299 10293 10296 10293 10297 10299 10303 10308 10310 10319
10230 10236 10244 10251 10259 10266 10273 10280 10288 10296 10304 10309 10314 10319 10323 10328 10331 10332 10335 10338 10341 10344 10344 10344 10341 10339 10336 10330 10326 10319 10317 10313 10300 10294 10289 10285 10283 10280 10279 10282 10284 10289 10292 10294 10297 10304 10312
10217 10224 10231 10237 10245 10252 10261 10270 10277 10283 10289 10295 10302 10307 10312 10316 10318 10320 10324 10327 10330 10331 10331 10328 10327 10323 10317 10313 10310 10300 10295 10287 10281 10277 10271 10270 10269 10267 10268 10271 10274 10279 10283 10281 10284 10294 10302
10206 10213 10223 10229 10237 10244 10251 10257 10265 10271 10278 10285 10291 10296 10301 10306 10309 10311 10314 10316 10318 10317 10314 10312 10309 10306 10299 10293 10293 10285 10276 10268 10264 10260 10258 10258 10258 10259 10259 10263 10268 10274 10276 10275 10282 10287 10296
10197 10203 10212 10223 10228 10235 10241 10248 10255 10263 10270 10276 10282 10288 10292 10296 10299 10301 10303 10304 10304 10301 10298 10295 10294 10289 10284 10280 10276 10268 10259 10254 10251 10248 10247 10248 10249 10251 10254 10259 10265 10269 10272 10274 10281 10286 10291
10187 10195 10203 10213 10222 10227 10233 10238 10247 10254 10262 10269 10275 10278 10283 10287 10288 10290 10291 10291 10291 10286 10285 10282 10278 10274 10270 10267 10260 10249 10244 10243 10240 10238 10238 10241 10243 10244 10246 10251 10256 10263 10271 10274 10276 10280 10284
10180 10188 10197 10206 10213 10219 10225 10233 10241 10248 10256 10261 10265 10269 10274 10277 10278 10279 10280 10279 10278 10273 10271 10268 10262 10260 10257 10253 10246 10237 10233 10232 10231 10230 10232 10234 10236 10237 10239 10246 10253 10258 10263 10265 10271 10275 10280
10175 10184 10191 10199 10206 10213 10220 10228 10234 10242 10247 10253 10257 10261 10264 10264 10266 10266 10267 10267 10265 10261 10258 10255 10249 10248 10247 10241 10234 10226 10226 10225 10223 10223 10225 10229 10231 10234 10238 10243 10248 10254 10260 10262 10267 10273 10280
10169 10176 10184 10191 10199 10208 10215 10222 10230 10235 10241 10244 10249 10253 10255 10255 10256 10257 10257 10255 10253 10249 10246 10242 10237 10237 10236 10230 10223 10216 10217 10218 10218 10219 10221 10225 10227 10231 10234 10238 10243 10249 10256 10260 10265 10270 10274
10163 10170 10178 10187 10194 10201 10209 10216 10223 10229 10233 10238 10241 10244 10244 10245 10245 10245 10245 10244 10242 10238 10234 10231 10228 10227 10226 10217 10214 10210 10209 10212 10214 10216 10217 10223 10223 10226 10231 10233 10238 10244 10249 10256 10259 10266 10273
10156 10165 10173 10181 10188 10196 10202 10209 10216 10219 10225 10228 10231 10233 10234 10235 10234 10235 10235 10233 10232 10227 10222 10221 10220 10216 10215 10208 10207 10204 10203 10206 10208 10210 10213 10218 10219 10222 10227 10232 10236 10241 10246 10252 10257 10265 10271
10150 10158 10167 10175 10181 10189 10195 10201 10207 10210 10214 10218 10220 10223 10225 10226 10225 10225 10225 10223 10220 10218 10212 10210 10210 10207 10204 10202 10199 10200 10198 10200 10203 10206 10208 10213 10218 10220 10223 10228 10234 10239 10244 10249 10252 10259 10265
10143 10153 10160 10167 10176 10182 10188 10193 10198 10202 10206 10209 10213 10215 10216 10216 10216 10216 10215 10213 10210 10207 10205 10199 10197 10197 10195 10194 10195 10194 10194 10199 10198 10202 10205 10209 10213 10217 10221 10225 10229 10234 10239 10243 10248 10252 10257